Tracking 30743 objects as of 22-Jun-2025
HD Live streaming from Space Station
objects crossing your sky now

STARLINK-3917

Track STARLINK-3917 now!
10-day predictions
STARLINK-3917 is classified as:


NORAD ID: 52588
Int'l Code: 2022-051BE
Perigee: 546.2 km
Apogee: 547.6 km
Inclination: 53.2 °
Period: 95.4 minutes
Semi major axis: 6917 km
RCS: Unknown
Launch date: May 13, 2022
Source: United States (US)
Launch site: AIR FORCE WESTERN TEST RANGE (AFWTR)
Your satellite tracking list
Your tracking list is empty




NASA's NSSDC Master Catalog

Two Line Element Set (TLE):
1 52588U 22051BE  25172.80240434  .00000147  00000-0  27338-4 0  9999
2 52588  53.2157 210.2910 0001049  73.0273 287.0834 15.08837770172204
Source of the keplerian elements: AFSPC